Hartsville, SC

6:55 AM EST on February 22, 2017 (GMT -0500)
Hartsville Regional

Weather History for KHVS - November, 2012

Change the Weather History Date:

Friday, November 9, 2012

  Actual Average (KFLO) Record (KFLO)
Temperature  
Mean Temperature 56 °F -  
Max Temperature 69 °F 69 °F 85 °F (1975)
Min Temperature 44 °F 45 °F 22 °F (1967)
Degree Days  
Heating Degree Days 8    
Growing Degree Days 6 (Base 50)    
Moisture  
Dew Point 29 °F    
Average Humidity 42    
Maximum Humidity 71    
Minimum Humidity 18    
Precipitation  
Precipitation 0.00 in - - ()
Sea Level Pressure  
Sea Level Pressure 30.22 in    
Wind  
Wind Speed 3 mph (NNW)    
Max Wind Speed 8 mph    
Max Gust Speed -    
Visibility 10 miles    
Events      
Averages and records for this station are not official NWS values.
T = Trace of Precipitation, MM = Missing Value Source: NWS Daily Summary

Daily Weather History Graph

Daily Weather History Graph

Search for Another Location

Airport or City:

Trip Planner

Search our weather history database for the weather conditions in past years. The results will help you decide how hot, cold, wet, or windy it might be!

Date:

Astronomy

Nov. 09, 2012 Rise Set
Actual Time 6:48 AM EST 5:19 PM EST
Civil Twilight 6:22 AM EST 5:46 PM EST
Nautical Twilight 5:51 AM EST 6:16 PM EST
Astronomical Twilight 5:22 AM EST 6:45 PM EST
Moon 1:57 AM EST (11/9) 2:21 PM EST (11/9)
Length of Visible Light 11h 24m
Length of Day
10h 31m
Waning Crescent, 23% of the Moon is Illuminated
Nov 9
Waning Crescent
Nov 13
New
Nov 20
First Quarter
Nov 28
Full
Dec 6
Last Quarter

Hourly Weather History & Observations

Time (EST) Temp. Windchill Dew Point Humidity Pressure Visibility Wind Dir Wind Speed Gust Speed Precip Events Conditions
12:15 AM 44.6 °F 43.1 °F 26.6 °F 49% 30.14 in 10.0 mi North 3.5 mph - N/A   Clear
12:35 AM 46.4 °F 43.5 °F 26.6 °F 46% 30.14 in 10.0 mi North 5.8 mph - N/A   Clear
12:55 AM 46.4 °F - 26.6 °F 46% 30.14 in 10.0 mi Calm Calm - N/A   Clear
1:15 AM 46.4 °F 44.3 °F 26.6 °F 46% 30.14 in 10.0 mi North 4.6 mph - N/A   Clear
1:35 AM 46.4 °F 43.5 °F 26.6 °F 46% 30.15 in 10.0 mi North 5.8 mph - N/A   Clear
1:55 AM 46.4 °F 43.5 °F 26.6 °F 46% 30.15 in 10.0 mi North 5.8 mph - N/A   Clear
2:15 AM 46.4 °F 42.9 °F 26.6 °F 46% 30.15 in 10.0 mi North 6.9 mph - N/A   Clear
2:35 AM 48.2 °F - 26.6 °F 43% 30.15 in 10.0 mi North 8.1 mph - N/A   Clear
2:55 AM 48.2 °F - 26.6 °F 43% 30.16 in 10.0 mi North 6.9 mph - N/A   Clear
3:15 AM 48.2 °F - 26.6 °F 43% 30.16 in 10.0 mi North 5.8 mph - N/A   Clear
3:35 AM 46.4 °F 43.5 °F 26.6 °F 46% 30.17 in 10.0 mi North 5.8 mph - N/A   Clear
3:55 AM 46.4 °F 42.9 °F 26.6 °F 46% 30.17 in 10.0 mi North 6.9 mph - N/A   Clear
4:15 AM 46.4 °F 43.5 °F 26.6 °F 46% 30.18 in 10.0 mi NNW 5.8 mph - N/A   Clear
4:35 AM 46.4 °F 44.3 °F 28.4 °F 50% 30.19 in 10.0 mi NNW 4.6 mph - N/A   Clear
4:55 AM 46.4 °F 43.5 °F 28.4 °F 50% 30.19 in 10.0 mi North 5.8 mph - N/A   Clear
5:15 AM 44.6 °F 42.2 °F 28.4 °F 53% 30.20 in 10.0 mi NNW 4.6 mph - N/A   Clear
5:35 AM 46.4 °F 44.3 °F 28.4 °F 50% 30.20 in 10.0 mi North 4.6 mph - N/A   Clear
5:55 AM 44.6 °F 42.2 °F 28.4 °F 53% 30.20 in 10.0 mi North 4.6 mph - N/A   Clear
6:15 AM 44.6 °F 43.1 °F 28.4 °F 53% 30.21 in 10.0 mi NNW 3.5 mph - N/A   Clear
6:55 AM 44.6 °F 42.2 °F 28.4 °F 53% 30.23 in 10.0 mi North 4.6 mph - N/A   Clear
7:15 AM 44.6 °F - 28.4 °F 53% 30.23 in 10.0 mi Calm Calm - N/A   Clear
7:35 AM 46.4 °F - 28.4 °F 50% 30.24 in 10.0 mi Calm Calm - N/A   Clear
7:55 AM 46.4 °F 45.2 °F 28.4 °F 50% 30.25 in 10.0 mi North 3.5 mph - N/A   Clear
8:15 AM 50.0 °F - 28.4 °F 43% 30.26 in 10.0 mi North 4.6 mph - N/A   Clear
8:35 AM 51.8 °F - 28.4 °F 41% 30.26 in 10.0 mi North 5.8 mph - N/A   Clear
8:55 AM 55.4 °F - 28.4 °F 36% 30.26 in 10.0 mi NE 5.8 mph - N/A   Clear
9:15 AM 59.0 °F - 28.4 °F 31% 30.27 in 10.0 mi NE 6.9 mph - N/A   Clear
9:55 AM 60.8 °F - 28.4 °F 29% 30.27 in 10.0 mi NE 3.5 mph - N/A   Clear
10:15 AM 62.6 °F - 28.4 °F 27% 30.28 in 10.0 mi ENE 4.6 mph - N/A   Clear
10:35 AM 62.6 °F - 28.4 °F 27% 30.28 in 10.0 mi Calm Calm - N/A   Clear
10:55 AM 62.6 °F - 28.4 °F 27% 30.28 in 10.0 mi Calm Calm - N/A   Clear
11:15 AM 64.4 °F - 28.4 °F 26% 30.27 in 10.0 mi Calm Calm - N/A   Clear
11:35 AM 64.4 °F - 28.4 °F 26% 30.27 in 10.0 mi Calm Calm - N/A   Clear
11:55 AM 66.2 °F - 28.4 °F 24% 30.26 in 10.0 mi Calm Calm - N/A   Clear
12:15 PM 68.0 °F - 26.6 °F 21% 30.26 in 10.0 mi Calm Calm - N/A   Clear
12:35 PM 68.0 °F - 26.6 °F 21% 30.24 in 10.0 mi Calm Calm - N/A   Clear
12:55 PM 68.0 °F - 28.4 °F 23% 30.23 in 10.0 mi WNW 3.5 mph - N/A   Clear
1:15 PM 68.0 °F - 26.6 °F 21% 30.23 in 10.0 mi Calm Calm - N/A   Clear
1:35 PM 68.0 °F - 26.6 °F 21% 30.22 in 10.0 mi WNW 4.6 mph - N/A   Clear
1:55 PM 69.8 °F - 26.6 °F 20% 30.21 in 10.0 mi WSW 8.1 mph - N/A   Clear
2:15 PM 69.8 °F - 26.6 °F 20% 30.21 in 10.0 mi Calm Calm - N/A   Clear
2:35 PM 69.8 °F - 26.6 °F 20% 30.21 in 10.0 mi West 5.8 mph - N/A   Clear
2:55 PM 69.8 °F - 24.8 °F 18% 30.20 in 10.0 mi WSW 4.6 mph - N/A   Clear
3:15 PM 69.8 °F - 26.6 °F 20% 30.20 in 10.0 mi Calm Calm - N/A   Clear
3:35 PM 69.8 °F - 26.6 °F 20% 30.20 in 10.0 mi Calm Calm - N/A   Clear
3:55 PM 69.8 °F - 26.6 °F 20% 30.20 in 10.0 mi WSW 3.5 mph - N/A   Clear
4:15 PM 68.0 °F - 26.6 °F 21% 30.21 in 10.0 mi Calm Calm - N/A   Clear
4:35 PM 68.0 °F - 28.4 °F 23% 30.21 in 10.0 mi WSW 4.6 mph - N/A   Clear
4:55 PM 64.4 °F - 30.2 °F 28% 30.21 in 10.0 mi Calm Calm - N/A   Clear
5:15 PM 59.0 °F - 30.2 °F 34% 30.21 in 10.0 mi Calm Calm - N/A   Clear
5:35 PM 55.4 °F - 30.2 °F 38% 30.22 in 10.0 mi Calm Calm - N/A   Clear
5:55 PM 53.6 °F - 32.0 °F 44% 30.22 in 10.0 mi Calm Calm - N/A   Clear
6:15 PM 51.8 °F - 32.0 °F 47% 30.23 in 10.0 mi Calm Calm - N/A   Clear
6:35 PM 51.8 °F - 32.0 °F 47% 30.23 in 10.0 mi Calm Calm - N/A   Clear
6:55 PM 51.8 °F - 32.0 °F 47% 30.23 in 10.0 mi Calm Calm - N/A   Clear
7:15 PM 50.0 °F - 32.0 °F 50% 30.23 in 10.0 mi Calm Calm - N/A   Clear
7:35 PM 50.0 °F - 32.0 °F 50% 30.23 in 10.0 mi Calm Calm - N/A   Clear
7:55 PM 48.2 °F - 32.0 °F 54% 30.24 in 10.0 mi Calm Calm - N/A   Clear
8:15 PM 46.4 °F - 32.0 °F 57% 30.24 in 10.0 mi Calm Calm - N/A   Clear
8:35 PM 48.2 °F - 32.0 °F 54% 30.24 in 10.0 mi Calm Calm - N/A   Clear
8:55 PM 46.4 °F - 32.0 °F 57% 30.25 in 10.0 mi Calm Calm - N/A   Clear
9:15 PM 46.4 °F - 32.0 °F 57% 30.25 in 10.0 mi Calm Calm - N/A   Clear
9:35 PM 46.4 °F - 33.8 °F 62% 30.26 in 10.0 mi Calm Calm - N/A   Clear
9:55 PM 44.6 °F - 33.8 °F 66% 30.26 in 10.0 mi Calm Calm - N/A   Clear
10:15 PM 44.6 °F - 33.8 °F 66% 30.27 in 10.0 mi Calm Calm - N/A   Clear
10:35 PM 44.6 °F - 33.8 °F 66% 30.27 in 10.0 mi Calm Calm - N/A   Clear
10:55 PM 44.6 °F - 35.6 °F 71% 30.27 in 10.0 mi Calm Calm - N/A   Clear
11:15 PM 44.6 °F - 35.6 °F 71% 30.27 in 10.0 mi Calm Calm - N/A   Clear
11:35 PM 44.6 °F - 33.8 °F 66% 30.27 in 10.0 mi Calm Calm - N/A   Clear
11:55 PM 44.6 °F - 33.8 °F 66% 30.27 in 10.0 mi Calm Calm - N/A   Clear